Location: *
(49.3500°N, 12.6000°E)
Time: 01:19:05
(UTC+00:00)

CZ-4 R/B - Pass Details

Date: 18 October 2019
Orbit: 530 x 601 km, 97.8° (Epoch: 11 November)

Event Time Altitude Azimuth Distance (km) Brightness Sun altitude
Rises 18:18:37 0° 200° (SSW) 2,805 5.1 -21.0°
Reaches altitude 10° 18:21:08 10° 215° (SW) 1,920 4.4 -21.4°
Maximum altitude 18:24:26 22° 267° (W) 1,305 4.0 -21.9°
Drops below altitude 10° 18:27:47 10° 320° (NW) 1,950 4.8 -22.4°
Sets 18:30:23 0° 335° (NNW) 2,862 5.5 -22.8°
